Weather in Chanthaburi

Thailand     12°38′05″N   102°05′49″E
temp.,
°C
wind,
m/s
gust,
m/s
humid.,
%
clouds,
%
prec.,
mm/h
press.,
hPa
HPBL,
m
25 october, mon
mon2501:00+23nne249494 0.0 1012115
04:00+22nne2393100 0.0 1010120
07:00+23ne148798 0.0 1012182
10:00+30ne245927 0.0 1013989
13:00+32ene245197 0.0 10091621
16:00+30ene235895 0.0 10071208
19:00+25ne12855 0.1 100976
22:00+23ne13885 0.0 101177
26 october, tue
tue2601:00+23nne1289100 0.0 101072
04:00+23nne128893 0.0 100866
07:00+23nne138595 0.0 1011127
10:00+30nne23566 0.0 1012807
13:00+33n224740 0.0 10091680
16:00+30nne136484 0.0 1007333
19:00+25nne118392 0.1 100936
22:00+24nne1286100 0.0 101141
27 october, wed
wed2701:00+23nne1187100 0.0 101043
04:00+23nne1187100 0.0 100938
07:00+23nne128567 0.0 1011100
10:00+28ne2363100 0.0 1012821
13:00+32nne235163 0.0 10081436
16:00+31nne235886 0.0 10061199
19:00+25nne1384100 0.0 100895
22:00+25n1385100 0.0 101098
28 october, thu
thu2801:00+24ne128879 0.1 1008107
04:00+23n1399100 27.4 1007178
07:00+23nnw1299100 40.4 1010131
10:00+23nnw1198100 8.6 1012160
13:00+24e1297100 28.1 1010231
16:00+24se019699 1.5 1009225
19:00+23ene119894 1.9 101042
22:00+23ne119872 0.1 101220
29 october, fri
fri2901:00+23nne119728 0.1 101122
04:00+22n119787 0.0 101029
07:00+23nne129455 0.0 101371
10:00+30n126911 0.3 1013844
13:00+33nnw125599 0.7 10101623
16:00+29ssw1276100 0.6 1009341
19:00+25se019317 1.6 101116
22:00+24nne119546 0.1 101319